Location: Huntsville
(41.2590°N, 111.7678°W)
Time: 17:07:02
(UTC+00:00)

Courier 1B Rocket - Pass Details

Date: 19 June 2021
Orbit: 920 x 1202 km, 28.2° (Epoch: 02 August)

Event Time Altitude Azimuth Distance (km) Brightness Sun altitude
Rises 02:38:01 0° 228° (SW) 3,783 8.4 3.2°
Reaches altitude 10° 02:41:30 10° 213° (SSW) 2,779 7.5 2.6°
Maximum altitude 02:46:14 20° 167° (SSE) 2,058 6.4 1.9°
Drops below altitude 10° 02:50:47 10° 122° (ESE) 2,662 6.6 1.1°
Sets 02:54:02 0° 106° (ESE) 3,578 7.3 0.6°
